Flag for U.S.A. Weather past 2 weeks in San Diego, California, U.S.A.

Now
80 °F

Scattered clouds.


Feels Like: 82 °F
Forecast: 71 / 86 °F
Wind: 8 mph from West

Location: San Diego - North Island

Current Time: Aug 27, 2015 at 6:10:18 PM

Latest Report: Aug 27, 2015 at 4:52 PM


Visibility: 9 mi

Pressure: 29.88 "Hg

Humidity: 64%

Dew point: 67 °F

Location of San DiegoLocation

Historic Weather in San Diego — Graph

°F

San Diego temperature yesterday

Maximum temperature yesterday: 81 °F (at 2:52 PM)
Minimum temperature yesterday: 70 °F (at 1:52 AM)
Average temperature yesterday: 73 °F

Past Weeks' High & Low Weather Summary

 TemperatureHumidityPressure
High83 °F (Aug 27, 2:52 PM)97% (Aug 26, 1:52 AM)29.99 "Hg (Aug 26, 1:52 AM)
Low68 °F (Aug 19, 6:52 AM)53% (Aug 27, 2:52 PM)29.80 "Hg (Aug 16, 3:52 PM)
Average72 °F79%29.90 "Hg
* Reported Aug 12 4:52 PM — Aug 27 4:52 PM, San Diego, Weather by CustomWeather, © 2015

Note: Actual official high and low records may vary slightly from our data, if they occured in-between our weather recording intervals... More about our weather records

Advertising

San Diego weather history for previous 24 hours

 ConditionsComfort  
Time TempWeatherWind HumidityBarometerVisibility
4:52 PM
Thu, Aug 27
80 °FScattered clouds.8 mph64%29.88 "Hg9 mi
3:52 PM81 °FScattered clouds.5 mph60%29.89 "Hg10 mi
2:52 PM83 °FScattered clouds.6 mph53%29.91 "Hg10 mi
1:52 PM81 °FScattered clouds.7 mph60%29.93 "Hg10 mi
12:52 PM82 °FPassing clouds.7 mph60%29.94 "Hg10 mi
11:52 AM80 °FPassing clouds.9 mph69%29.96 "Hg10 mi
10:52 AM80 °FPassing clouds.7 mph69%29.97 "Hg8 mi
9:52 AM78 °FPassing clouds.5 mph76%29.97 "Hg10 mi
8:52 AM75 °FPassing clouds.No wind85%29.97 "Hg9 mi
7:52 AM73 °FPassing clouds.No wind88%29.97 "Hg8 mi
6:52 AM71 °FPassing clouds.No wind96%29.95 "Hg8 mi
5:52 AM71 °FPassing clouds.5 mph93%29.93 "Hg8 mi
4:52 AM71 °FPassing clouds.5 mph93%29.93 "Hg8 mi
3:52 AM71 °FPassing clouds.3 mph90%29.93 "Hg8 mi
2:52 AM72 °FPassing clouds.5 mph84%29.94 "Hg8 mi
1:52 AM71 °FPassing clouds.3 mph90%29.95 "Hg8 mi
12:52 AM71 °FPassing clouds.No wind87%29.95 "Hg8 mi
11:52 PM
Wed, Aug 26
71 °FPassing clouds.No wind87%29.96 "Hg8 mi
10:52 PM71 °FPassing clouds.No wind90%29.96 "Hg8 mi
9:52 PM72 °FPassing clouds.No wind84%29.96 "Hg8 mi
8:52 PM71 °FPassing clouds.3 mph90%29.95 "Hg7 mi
7:52 PM72 °FScattered clouds.5 mph87%29.93 "Hg7 mi
6:52 PM73 °FScattered clouds.6 mph88%29.92 "Hg7 mi
Weather by CustomWeather, © 2015

See weather overviewHow to use our weather pages